Regional Weather Roundup
Issued by NWS Midland/Odessa, TX

Home | Current Version | Previous Version | Text Only | Print | Product List | Glossary On
Versions: 1 2 3 4 5 6 7 8 9 10 11 12 13 14 15 16 17 18 19 20 21 22 23 24 25 26 27 28 29 30 31 32 33 34 35 36 37 38 39 40 41 42 43 44 45 46 47 48 49 50
000
ASUS44 KMAF 220701
RWRMAF
MIDLAND AREA WEATHER ROUNDUP
NATIONAL WEATHER SERVICE MIDLAND TX
100 AM CST SUN JAN 22 2017

...IN SOUTHWEST TEXAS AND SOUTHEAST NEW MEXICO...

CITY           SKY/WX    TMP DP  RH WIND       PRES   REMARKS
ALPINE         CLEAR     42  23  47 W24       29.96R WCI  32
ANDREWS        FAIR      45  25  45 W23G36    29.66R WCI  36
ARTESIA        CLEAR     46  21  36 NW29G39   29.73R WCI  37
BIG SPRING     CLEAR     48  26  41 W30G38    29.63R WCI  40
CARLSBAD       CLEAR     44  25  47 NW16      29.77R WCI  37
DRYDEN           N/A     55  22  27 W29G44    29.77S
FORT STOCKTON  CLEAR     47  23  38 W26G47    29.79R WCI  38
GUAD PASS      PTCLDY    33  24  69 SW30G40   29.88R WCI  19
HOBBS          NOT AVBL
MARFA          CLEAR     37  25  61 W23G30    29.93R WCI  26
MIDLAND AIRPK  CLEAR     50  24  36 W32G43    29.66S
MIDLAND INTL   CLEAR     49  24  37 W31G46    29.65S
ODESSA         CLEAR     48  23  37 W32G43    29.68R WCI  39
PECOS          CLEAR     48  23  37 W29G45    29.79R WCI  40
PRESIDIO       FAIR      51  26  39 W17G26    29.96R
SEMINOLE       CLEAR     44  25  47 W26G33    29.65R WCI  34
SNYDER         PTCLDY    48  28  45 W25G36    29.52F
WINK           CLEAR     47  24  40 W28G37    29.73R WCI  38
$$
...OTHER STATIONS IN TEXAS...

CITY           SKY/WX    TMP DP  RH WIND       PRES   REMARKS
ABILENE        CLEAR     51  27  39 W33G46    29.47F
AMARILLO       LGT RAIN  40  38  93 NW25G40   29.50R WCI  29
AUSTIN         CLOUDY    64  29  26 W22G35    29.57R
BROWNSVILLE    PTCLDY    71  53  52 N17G29    29.59R
CORPUS CHRISTI PTCLDY    66  45  46 N17       29.65R
DALLAS FTW     MOCLDY    57  42  57 SW14      29.38F
DEL RIO        PTCLDY    60  33  36 W25G32    29.73F
EL PASO        CLEAR     42  23  46 W31G44    29.97R WCI  31
HOUSTON INT    MOCLDY    58  56  93 S5        29.57F
LUBBOCK        MOCLDY    44  26  49 W25G32    29.50R WCI  35
SAN ANGELO     CLEAR     52  28  39 W30G40    29.61S
SAN ANTONIO    MOCLDY    63  26  24 W30G40    29.64R
WACO           MOCLDY    55  43  63 W15       29.49S
WICHITA FALLS  NOT AVBL
$$
...OTHER LOCATIONS IN NEW MEXICO...

CITY           SKY/WX    TMP DP  RH WIND       PRES   REMARKS
ALAMAGORDO     CLOUDY    37  23  56 NW7       29.95R WCI  32
ALBUQUERQUE    CLOUDY    39  21  48 NW7G16    29.91R WCI  34
CANNON AFB     CLEAR     39  27  61 NW20      29.61R WCI  30
CLOVIS         MOCLDY    39  25  56 NW16      29.60R WCI  30
HOLLOMAN AFB   NOT AVBL
ROSWELL        CLEAR     47  20  34 NW30G41   29.70R WCI  38
RUIDOSO        CLOUDY    30  16  55 NW30G46   29.82R WCI  15
SANTA FE       CLOUDY    34  22  61 SW3       29.83R
TRUTH OR CONSE CLEAR     37  18  46 NW20      29.96R WCI  27
TUCUMCARI      CLOUDY    44  27  51 NW14      29.63R WCI  37
$$




USA.gov is the U.S. government's official web portal to all federal, state and local government web resources and services.